Regional Weather Roundup
Issued by NWS

Home | Current Version | Previous Version | Text Only | Print | Product List | Glossary Off
Versions: 1 2 3 4 5 6 7 8 9 10 11 12 13 14 15 16 17 18 19 20 21 22 23 24 25 26 27 28 29 30 31 32 33 34 35 36 37 38 39 40 41 42 43 44 45 46 47 48 49 50

000
ASUS43 KLSX 240507
RWRMO

WEATHER SUMMARY FOR MISSOURI
NATIONAL WEATHER SERVICE SPRINGFIELD MO
1100 PM CST THU FEB 23 2017

NOTE: "FAIR" INDICATES FEW OR NO CLOUDS BELOW 12,000 FEET WITH NO
       SIGNIFICANT WEATHER AND/OR OBSTRUCTIONS TO VISIBILITY.
       CURRENT SKY AND/OR WEATHER CONDITIONS ARE NOT AVAILABLE FOR
       CHILLICOTHE AND FARMINGTON.

MOZ001>031-035>038-043-044-053-054-240600-
...NORTHERN AND WESTERN MISSOURI...

CITY           SKY/WX    TMP DP  RH WIND       PRES   REMARKS
KANSAS CTY INT CLOUDY    49  47  93 NW9       29.38R FOG
KANSAS C DTWN  PTCLDY    50  47  89 N7        29.35F
LEE`S SUMMIT   CLOUDY    50  48  93 SE17      29.34F FOG
ST JOSEPH      CLOUDY    47  47 100 NW16      29.47R FOG
CHILLICOTHE      N/A     50  48  93 NE7       29.37F
KIRKSVILLE     CLEAR     50  49  96 E10       29.42F FOG

$$
MOZ066>068-077>081-088>096-101>105-240600-
...SOUTHWEST MISSOURI...

CITY           SKY/WX    TMP DP  RH WIND       PRES   REMARKS
SPRINGFIELD    CLEAR     65  50  58 S13       29.45S
JOPLIN         PTCLDY    72  49  44 S24G33    29.39S
BRANSON        CLEAR     68  52  56 S12G22    29.50F

$$
MOZ032>034-039>042-045>050-055>058-069>072-240600-
...CENTRAL MISSOURI...

CITY           SKY/WX    TMP DP  RH WIND       PRES   REMARKS
COLUMBIA       CLEAR     63  56  78 SE15      29.42F
JEFFERSON CITY CLEAR     61  54  77 E10       29.43F
ROLLA          CLEAR     64  56  75 S18G28    29.47F
SEDALIA        PTCLDY    67  52  58 S13       29.42R
WHITEMAN AFB   MOCLDY    63  54  72 W35G47    29.42R THUNDER
WARRENSBURG    CLOUDY    52  50  93 S22G30    29.39R
OSAGE BEACH    CLEAR     67  55  65 S10G21    29.43F

$$
MOZ051-052-059>065-240600-
...EAST CENTRAL MISSOURI...

CITY           SKY/WX    TMP DP  RH WIND       PRES   REMARKS
ST LOUIS INTL  MOCLDY    66  54  65 S10       29.52F
SPIRIT OF STL  CLOUDY    65  56  72 CALM      29.50F
ST CHARLES     CLOUDY    61  55  81 SE12      29.50F

$$
MOZ072>076-082>087-097>100-106>115-240600-
...SOUTH CENTRAL AND SOUTHEAST MISSOURI...

CITY           SKY/WX    TMP DP  RH WIND       PRES   REMARKS
CAPE GIRARDEAU PTCLDY    63  56  78 S13       29.60F
FARMINGTON     CLOUDY    65  54  67 S21G29    29.55R
POPLAR BLUFF   PTCLDY    66  56  70 S14       29.59F
WEST PLAINS    CLEAR     63  55  75 S12       29.57S

$$



USA.gov is the U.S. government's official web portal to all federal, state and local government web resources and services.